[Date Prev][Date Next][Thread Prev][Thread Next][Date Index][Thread Index]

[jamsat-news:1601] jas2info #246



========================   ºÇ¿·¾ðÊó   ==============================

        Last updated ¡§13OCT2001 ¡¡20¡§50(JST)   #246

==================================================================
   
  £±¡Ë¥¢¥Þ¥Á¥å¥¢ÄÌ¿®±ÒÀ±¾ðÊ󡢣ƣϥ·¥ê¡¼¥º¤Îµ°Æ»Í×ÁÇ¡¢¥Æ¥ì¥á¥È¥ê¡¢£Ñ£Ó£Ï¤Î
¡¡¡¡¡¡¾õ¶·Åù¤ò¤Þ¤È¤á¤Æ¤ß¤Þ¤·¤¿¡¥
¡¡¡¡¡¡
¡¡¡¡¡¡£Æ£Ï¡Ý£²£¹¤Î£²£°£°£±Ç¯£±£°·î£±£³Æü¡ÊÅڡˤΣ±£¸¡§£µ£·¡Ê£Ê£Ó£Ô¡Ë¤Î¥Ñ¥¹¤Ç¤Ï
¡¡¡¡JARL¤Î¥Û¡¼¥à¥Ú¡¼¥¸¤Î¤È¤¦¤ê¥¢¥Ê¥í¥°±¿ÍѤǤ·¤¿¡£¡¡º£Æü¤Þ¤Ç¤Î´Ñ¬¤·¤¿
¡¡¡¡¥Æ¥ì¥á¥È¥ê¡¼¤ÈºÇ½ª¤ÎʬÀÏ·ë²Ì¤òÊó¹ð¤·¤Æ¤ª¤­¤Þ¤¹¡£

AS25464C1   13OCT2001
18:57-19:12(JST)
Freq. 435.803-.788MHz

HI HI AE C7 88 55 00 D4 9B 53 09 6D 9B 38 67 63 9C 95 B8 B5 8F 8C 8E 8E 8C 
HI HI AE C7 88 55 00 D4 9B 53 09 6D 9C 3C 66 63 9C 98 B0 80 8F 8C 8E 8E 8C 
HI HI AE C7 88 55 00 D4 9B 53 09 6D 9A 40 47 66 9B 97 A0 80 8F 8C 8E 8F 8C 
HI HI AE C7 88 55 00 D4 9B 53 09 6D 95 42 41 7D 93 8F 95 79 8F 8C 8E 8E 8C 
HI HI AE C7 88 55 00 D4 9B 53 09 6D 8E 45 40 86 8E 8C 91 6B 8F 8C 8E 8F 8C 
HI HI AE C7 88 55 00 D4 9B 53 09 6D 85 4B 01 87 8B 7A 8F 7B 8F 8C 8E 8F 8C 
HI HI AE C7 88 55 00 D4 9B 53 09 6D 71 58 00 89 8A 89 95 8C 8F 8C 8E 8F 8C 
HI HI AE 07 88 55 00 D4 9B 53 09 6D 66 5F 01 86 8A 89 95 77 8F 8C 8F 8F 8B 
HI HI AE C7 88 55 00 D4 9B 53 09 6D 5C 6A 02 85 8A 89 95 75 8F 8C 8F 8F 8C 
HI HI AE 07 88 55 00 D4 9B 53 09 6D 54 6F 05 85 8A 89 95 71 8F 8C 8F 8F 8C 
HI HI AE 07 88 55 00 D4 9B 53 09 6D 4E 78 0B 81 8A 89 95 6A 8F 8D 8F 90 8C 
HI HI AE 07 88 55 00 D4 9B 53 09 6D 4B 81 26 73 8B 88 95 79 90 8D 8F 90 8C 
HI HI AE 07 88 55 00 D4 9B 53 09 6D 4A 8A 54 5D 8D 8B 98 83 90 8D 8F 90 8C 
HI HI AE 07 88 55 00 D4 9B 53 09 6D 4C 91 60 56 8F 8C 99 77 90 8D 8F 90 8C 
HI HI AE 07 88 55 00 D4 9B 53 09 6D 51 97 63 55 90 8E 9B 6B 90 8D 8F 90 8C 
HI HI AE 07 88 55 00 D4 9B 53 09 6D 57 9C 64 55 92 8F B0 76 90 8E 90 90 8C 
HI HI AE C7 88 55 00 D4 9B 53 09 6D 5D 9D 66 58 91 7F B0 67 90 8E 90 90 8C 
HI HI AE C7 88 55 00 D4 9B 53 09 6D 65 9E 68 59 91 8F B0 5F 91 8E 90 90 8C 
HI HI AE C7 88 55 00 D4 9B 53 09 6D 6B 9F 69 5F 91 8F B0 5B 91 8E 90 90 8C 

AS25437C  11OCT2001
19:02-19:17(JST)
FREQ. 435.803-.787MHz

HI HI AE C7 88 55 00 D4 00 00 09 00 4F 99 6F 63 9B 97 B0 88 8F 8B 8F 91 8D 
HI HI AE C7 88 55 00 D4 00 00 09 00 42 8D 6A 63 9C 97 B0 80 8F 8B 8F 92 8D 
HI HI AE C7 88 55 00 D4 00 01 09 00 3A 7F 3C 6C 9A 95 9D 76 8F 8B 8F 91 8D 
HI HI AE C7 88 55 00 D4 00 01        5 6F 11 80 91 8E 94 79 8F 8B 8F 91 8D 
HI HI AE C7 88 55 00 D4 00 00 00 90 34 60 86 74 8D 8B 91 82 8F 8B 8F 91 8D 
HI HI AE C7 88 55 00 D4 01 00          52 01 77 8B 8A 8F 75 8F 8B 8F 91 8C 
HI HI AE C7 88 55 00 D4 00 09 8A                   8A 8A 75 8F 8B 8F 91 8D 
HI HI AE 07 88 55 00 D4 00 00 09 00 46 3E 01  7 8A 89 95 86 8F 8B 90 92 8D 
HI HI AE 07 88 55 00 D4 0O 00 88 0 5         87 8A 89 95 75 8F 8B 90 92 8C
HI HI AE 07 88 55 00 D4 00 00 07    59 36 04 84 8A 89 95 86 8F 8B 90 92 8D 
HI HI AE 07 88 55 00 D4 00 09 00   61 37      2 8A 89 95 66 8F 8B 90 92 8C 
HI HI AE 07 88 55 00 D4 00 00 00          31 6D 8C 8A 95 72 8F 8C 90 92 8C 
HI HI AE 07 88 55 00 D4 09 00 09                      95 7B 8F 8C 90 92 8C 
HI HI AE 07 88 55 00 D4 00 00 50 06 8 46              9A 67 8F 8C 90 92 8C 
HI HI AE 07 88 55 00 D4 00 00 06 0 07 00 65 4B  8F 8D 9A 69 8F 8C 99 92 8C 
HI HI AE 07 88 55 00 D4 00    65 25 5F 4E 5O 5F 90 8D 9B 86 6F 8C 91 92 8C 
HI HI AE 07 88 55 00 D4 00    27 90 59 51 52 5E 90 8E 9B 7A 90 8D 91 92 8C 
HI HI AE 07 88 55 00 D4 00 51 08 00 51 50 51 61 91 8F AC 74 90 8D 91 92 8D 
HI HI AE C7 88 55 00 D4 00    95 00 4B 4F 54 5F 61 85 B0 85 90 7D 91 92 8D

AS25424C  10OCT2001
20:02-20:20(JST)
FREQ. 435.800-.786MHz

HI HI AE C7 88 55 00 D4 FB AE 09 58 8A 35 01 89                8E 8C 92 8E 
HI HI AE C7 88 55 00 D4 FB AE 09 58 94                    F 96 8E 8C 92 8E 
HI HI AE 07 88 55 00 D4 FB AE 09 58 94 48 07 88 8A 89 95 69 96 8E 8C 93 8E 
HI HI AE 07 88 55 00 D4 FB AE 09 58 94         6 A 89 95 69 96 8E 8C 93 8E 
HI HI AE 17 88 55 00 D4 FB AE 09 58 96 5E 03 85 8A 89 95 65 96 8E 8D 93 8E 
HI HI AE 07 88 55 00 D4 FB AE 09 58 96 68 0A 87 8A 89 95 69 96 8E 8D 93 8E 
HI HI AE 07 88 55 00 D4 FB AE 09 58 95 72 1F 70 8A 89 95 75 96 8E 8D 93 8E 
HI HI AE 07 88 55 00 D4 FB AE 09 58 93 7D 39 6A 8C 8A 97 78 96 8E 8D 93 8E 
HI HI AE 07 88 55 00 D4 FB AE 09 58 90 86 54 5D 8E 8B 98 6A 96 8E 8D 93 8E 
HI HI AE 07 88 55 00 D4 FB AE 09 58 8D 8E 55    8E 8C 99 AB 96 8F 8D 93 8E 
HI HI AE 07 88 55 00 D4 FB AE 09 58 89 94 55 5D 8F 8D 9A 72 96 8F 8E 93 8E 
HI HI AE 07 88 55 00 D4 FB AE 09 58 85 98 58 5B 8F 8E 9E    96 8F 8E 93 8E 
HI HI AE 07 88 55 00 D4 FB AE 09 58 81 9B 5D 59 90 6F 9C 6B 96 8F 8E 93 8E 
HI HI AE 07 88 55 00 D4 FB AE 09 58  D 9C                5D 96 8F 8E 93 8E 
HI HI AE C7 88 55 00 D4 FB AE 09 58 7A 9C 5F 5F 91 8F B0 54 96 90 8E 93 8E 
 
AS25411C   9OCT2001
20:58-21:07(JST)
FREQ. 435.793-.786MHz
                                                8A 89 95 7E 97 8F 8D 95 91 
HI HI AE 0I H  55 00 D4 C5 35 09 0C 42 44 7     8A 89 95 6C 97 8F 8E 95 91 
HI HI AE C7 88 55 00 D4 C5 35 09 0C             8A 89 95 70 97 8F 8E 95 91 
HI HI AE C7 88 55 00 D4 C5 35 09 0C 47 3D 09 83 8A  9 95 8C 97 8F 8E 95 91
HI HI AE 07 88 55 00 D4 C5 35 09 0C 4F 42 32 6C 8C 8A 97 84 97 8F 8E 95 91 
HI HI AE 07 88 55 00 D4 C5 35 09 0C 59 4B 68 53 8F 8C 9A 75 97 90 8E 95 91 
HI HI AE C7 88 55 00 D4 C5 35 09 0C             91 8E 9B 7C 97 90 8F 95 91 
HI HI AE C7 88 55 00 D4 C5 35 09 0C 72 60 72 59 91 8E 9E 7E 97 90 8R 95 91 
HI HI AE C7 88 55 00 D4 C5 35 09 0C 59 6C 72 5F 91 8F B0 AF 97 90 8F 95 91 
HI HI AE C7 88 55 00 S4 C5 35 09 0C 88 76 72 5F 92 8F B0 78 97 91 8F 96 91 
HI HI AE C7 88 55 00 D4 C5 35 09 0C 8F 7E 70 5F 92 8F B0 5E 98 91 8F 96 91  	
 
------------------------¡¡£Æ£Ï-£²£¹¤Îµ°Æ»Í×ÁÇ¡¡------------------------------        
 
¡¡¡¡¢£ µ°Æ»Í×ÁÇ£±¡§¡Öjamsat¡Ýkeps¡§£±£°£´£²¡×¤è¤ê         
¡¡¡¡¡¡¡¡¡¡¡¡¡¡¡¡¡¡¡¡SB KEPS @ AMSAT  $ORB01284.N
¡¡¡¡¡¡¡¡¡¡¡¡¡¡¡¡¡¡¡¡2Line Orbital Elements 01284.AMSAT

HR AMSAT ORBITAL ELEMENTS FOR AMATEUR SATELLITES IN NASA FORMAT
FROM WA5QGD FORT WORTH,TX October 11, 2001
SEND SUBSCRIBE/UNSUBSCRIBE TO majordomo@amsat.org ONLY
BID: ORB01284.N

¡¡DECODE 2-LINE ELSETS WITH THE FOLLOWING KEY:
¡¡1 AAAAAU 00  0  0 BBBBB.BBBBBBBB  .CCCCCCCC  00000-0  00000-0 0  DDDZ
¡¡2 AAAAA EEE.EEEE FFF.FFFF GGGGGGG HHH.HHHH III.IIII JJ.JJJJJJJJKKKKKZ
¡¡KEY: A-CATALOGNUM B-EPOCHTIME C-DECAY D-ELSETNUM E-INCLINATION F-RAAN
¡¡G-ECCENTRICITY H-ARGPERIGEE I-MNANOM J-MNMOTION K-ORBITNUM Z-CHECKSUM

FO-29
1 24278U 96046B   01283.65404528  .00000062  00000-0  97071-4 0 04526
2 24278 098.5250 133.1151 0351745 062.6267 301.0206 13.52786269254252

 ¢£ µ°Æ»Í×ÁÇ£²¡§¡Öjamsat¡Ýkeps¡§£±£°£´£±¡×¤è¤ê
¡¡¡¡¡¡¡¡¡¡¡¡¡¡¡¡SB KEPS @ AMSAT  $ORB01284.O
Orbital Elements  01284.OSCAR

HR AMSAT ORBITAL ELEMENTS FOR OSCAR SATELLITES
FROM WA5QGD FORT WORTH,TX October 11, 2001
SEND SUBSCRIBE/UNSUBSCRIBE TO majordomo@amsat.org ONLY
BID: ORB01284.O
TO ALL RADIO AMATEURS BT

Satellite: FO-29
Catalog number: 24278
Epoch time:      01283.65404528
Element set:    0452
Inclination:      098.5250 deg
RA of node:       133.1151 deg
Eccentricity:    0.0351745
Arg of perigee:   062.6267 deg
Mean anomaly:     301.0206 deg
Mean motion:   13.52786269 rev/day
Decay rate:        6.2e-07 rev/day^2
Epoch rev:           25425
Checksum:              289

-------------------¡¡¡¡FO-29¡ÊJAS-2)¤Î¥Æ¥ì¥á¥È¥ê¤Ë´Ø¤¹¤ë¾ðÊó¡¡¡¡----------------------¡¡
¡¡
£²¡Ë¾åµ­£±£°·î£±£³Æü¡ÊÅڡˤΥƥì¥á¥È¥ê¤ÎºÇ½ª¹Ô¤òʬÀϤ·¤Æ¤ª¤­¤Þ¤¹.

AS25464C1   13OCT2001
18:57-19:12(JST)
Freq. 435.803-.788MHz

HI HI AE C7 88 55 00 D4 9B 53 09 6D 6B 9F 69 5F 91 8F B0 5B 91 8E 90 90 8C 

¥Æ¥ì¥á¥È¥ê¡¡  Æâ¡¡ÍÆ¡¡ ¡¡      ´¹»»»»ÃÍ¡¡Ã± °Ì
£³£Ã	¼§µ¤¥»¥ó¥µ¡¼£Ú¼´=	52451.0	[nT]
£³£Ä	¼§µ¤¥»¥ó¥µ£Ø¼´	=	77941.2	[nT]
£´£Á	ÂÀÍÛÅÅÃÓȯÀ¸ÅÅή=	 1029.4	[mA]
£´£Â	£Â½¼ÊüÅÅÅÅή	=	 -138.0	[mA]
£´£Ã	£Âü»ÒÅÅ°µ	=	   15.6	[V]
£´£Ä	£ÂÃæ´Öü»ÒÅÅ°µ	=	    6.9	[V]
£µ£Á	¥Ð¥¹ÅÅ°µ	=	   17.3	[V]
£µ£Â	£Ê£Ô£ÁÁ÷¿®ÅÅÎÏ	=	  493.4	[mW]
£µ£Ã 	¹½Âβ¹ÅÙ£±	=	   25.6	[¡î]
£µ£Ä	¹½Âβ¹ÅÙ£²	=	   26.7	[¡î]
£¶£Á	¹½Âβ¹ÅÙ£³	=	   26.0	[¡î]
£¶£Â	¹½Âβ¹ÅÙ£´	=	   26.0	[¡î]
£¶£Ã	£Â¥»¥ë²¹ÅÙ	=	   27.5	[¡î]

 ==========================¡¡FO-29¡Ê¤Õ¤¸£³¹æ¡Ë¤ÎQSO¾ðÊóÅù¡¡======================
   
¡¡£³)[jamsat-bb:

 ===============================================================================
¡¡¡¡¡¡£´¡Ë£Ê£Á£Ò£Ì ¤Î¥Û¡¼¥à¥Ú¡¼¥¸¤Ë±¿ÍÑͽÄ꤬µ­ºÜ¤µ¤ì¤Æ¤¤¤Þ¤·¤¿¤Î¤Ç¤´¾Ò²ð¤·¤Þ¤¹¡¥
       ¡Ê http://www.jarl.or.jp/Japanese/3_Fuji/new/uy.htm ¡Ë

       
¡¡¡¡¡¡¡¡¡¡¡¡¤Õ¤¸£³¹æ¡Ê£Ê£Á£Ó¡Ý£²¡Ë¤Î±¿ÍÑ 

¡¡¡¡¡¡¡¡¡¡¡¡¡¡¡¡¡ö¡ö¡ö¡¡±¿ÍÑͽÄê¤Ë¤Ä¤¤¤Æ¡¡¡ö¡ö¡ö


¡¡£±£°·î£±Æü¡Ê·î¡Ë¡¡¡Á¡¡£±£²·î£³Æü¡Ê·î¡Ë¥¢¥Ê¥í¥°·Ï±¿ÍÑ 

¡¡¡¡¡ö¤Ê¤ª¡¤±¿ÍÑͽÄê¤ÏÅÔ¹ç¤Ë¤è¤ê¡¤Êѹ¹¤¹¤ë¤³¤È¤¬¤¢¤ê¤Þ¤¹¤Î¤Ç¡¤¤¢¤é¤«¤¸¤á¤´Î»¾µ´ê¤¤¤Þ¤¹¡£

¡¡¾È²ñÀè¡¡¡§¡¡lab@jarl.or.jp

¡¡ºÇ¿·¤Î¾ðÊó¤Ï¥Æ¥ì¥Û¥ó¥µ¡¼¥Ó¥¹¡Ê£°£³¡Ý£³£¹£´£²¡Ý£±£°£°£°¡Ë¤ò¤ªÊ¹¤­¤¯¤À¤µ¤¤¡£¡¡¡¡
¡¡°Ê¸å¤Î±¿ÍѤˤĤ­¤Þ¤·¤Æ¤ÏÊ¿À®£±£³Ç¯£±£²·î¾å½Ü¤Ë¤ªÃΤ餻¤¤¤¿¤·¤Þ¤¹¡£ 
 ¡¡¡¡¡¡¡¡
-----------------------    £Æ£Ï¡Ý£²£°¡ÊJAS-£±£â¡ËÆ»Í×ÁÇ   -------------------------
 ¡¡£µ¡Ë
 ¡¡¢£ µ°Æ»Í×ÁÇ£± ¡§½Ðŵ¤Ï£Æ£Ï-£²£¹¡Ö¤Õ¤¸£³¹æ¡×¤ËƱ¤¸¡¥
  
FO-20
1 20480U 90013C   01283.71246737  .00000032  00000-0  13810-3 0 03768
2 20480 099.0482 330.4825 0540863 047.6190 316.9403 12.83299098546918
 
 ¡¡¢£ µ°Æ»Í×ÁÇ£² ¡§½Ðŵ¤Ï£Æ£Ï¡Ý£²£¹¡Ö¤Õ¤¸£³¹æ¡×¤ËƱ¤¸¡¥
               
Satellite: FO-20
Catalog number: 20480
Epoch time:      01283.71246737
Element set:    0376
Inclination:      099.0482 deg
RA of node:       330.4825 deg
Eccentricity:    0.0540863
Arg of perigee:   047.6190 deg
Mean anomaly:     316.9403 deg
Mean motion:   12.83299098 rev/day
Decay rate:        3.2e-07 rev/day^2
Epoch rev:           54691
Checksum:              311

¡¡--------------------------------------------------------------------------------
¡¡
¡¡        ¢£ ¤Õ¤¸£²¹æ¡¿£Æ£Ï¡Ý£²£°/JAS-1£â ¢£  ¡¡   
            
¡¡¡¡¡¡¡¡¡¡¡¡¡¡¡¡¡¡¡¡¡Ö¤Õ¤¸£²¹æ¡×¡¡¸½¶·                                                                                  
             
